Location: Newark
(39.0083°N, 20.7336°E)
Time: 20:09:25
(UTC+00:00)

Nauka - Pass Details

Date: 01 October 2021
Orbit: 417 x 423 km, 51.6° (Epoch: 19 October)

Event Time Altitude Azimuth Distance (km) Brightness Sun altitude
Rises 16:41:50 0° 316° (NW) 2,364 ? -5.1°
Reaches altitude 10° 16:44:56 10° 347° (NNW) 1,499 ? -5.7°
Maximum altitude 16:46:28 12° 14° (NNE) 1,357 ? -6.0°
Drops below altitude 10° 16:47:59 10° 41° (NE) 1,499 ? -6.3°
Enters shadow 16:49:30 - 60° (ENE) 1,856 ? -6.6°
